Paris - Charles De Gaulle, France

11:40 AM CEST on August 27, 2016 (GMT +0200)
Charles de Gaulle

Weather History for LFPG - November, 2012

Change the Weather History Date:

Friday, November 2, 2012

  Actual Average Record
Temperature  
Mean Temperature 44 °F -  
Max Temperature 48 °F 48 °F 63 °F (2014)
Min Temperature 41 °F 39 °F 26 °F (1997)
Degree Days  
Heating Degree Days 20    
Moisture  
Dew Point 40 °F    
Average Humidity 84    
Maximum Humidity 93    
Minimum Humidity 76    
Precipitation  
Precipitation 0.00 in - - ()
Sea Level Pressure  
Sea Level Pressure 29.47 in    
Wind  
Wind Speed 12 mph ()    
Max Wind Speed 16 mph    
Max Gust Speed 29 mph    
Visibility 5.9 miles    
Events Rain    
Averages and records for this station are not official NWS values.
T = Trace of Precipitation, MM = Missing Value Source: Averaged Metar Reports

Daily Weather History Graph

Daily Weather History Graph

Search for Another Location

Airport or City:

Trip Planner

Search our weather history database for the weather conditions in past years. The results will help you decide how hot, cold, wet, or windy it might be!

Date:

Astronomy

Nov. 02, 2012 Rise Set
Actual Time 7:39 AM CET 5:26 PM CET
Civil Twilight 7:05 AM CET 6:00 PM CET
Nautical Twilight 6:28 AM CET 6:37 PM CET
Astronomical Twilight 5:51 AM CET 7:14 PM CET
Moon 7:49 PM CET (11/2) 10:59 AM CET (11/2)
Length of Visible Light 10h 54m
Length of Day
9h 47m
Waning Gibbous, 89% of the Moon is Illuminated
Nov 2
Waning Gibbous
Nov 7
Last Quarter
Nov 13
New
Nov 20
First Quarter
Nov 28
Full

Hourly Weather History & Observations

Time (CET) Temp. Windchill Dew Point Humidity Pressure Visibility Wind Dir Wind Speed Gust Speed Precip Events Conditions
12:00 AM 42.8 °F 35.4 °F 37.4 °F 81% 29.36 in 6.2 mi SW 15.0 mph - N/A   Mostly Cloudy
12:30 AM 42.8 °F 35.4 °F 37.4 °F 81% 29.39 in 6.2 mi SW 15.0 mph - N/A   Mostly Cloudy
1:00 AM 42.8 °F 36.6 °F 37.4 °F 81% 29.39 in 6.2 mi SSW 11.5 mph - N/A   Partly Cloudy
1:30 AM 42.8 °F 36.6 °F 37.4 °F 81% 29.42 in 6.2 mi SSW 11.5 mph - N/A   Partly Cloudy
2:00 AM 42.8 °F 36.2 °F 37.4 °F 81% 29.42 in 6.2 mi SSW 12.7 mph - N/A   Partly Cloudy
2:30 AM 42.8 °F 36.2 °F 35.6 °F 76% 29.42 in 6.2 mi SSW 12.7 mph - N/A   Partly Cloudy
3:00 AM 42.8 °F 36.6 °F 35.6 °F 76% 29.44 in 6.2 mi SSW 11.5 mph - N/A   Partly Cloudy
3:30 AM 42.8 °F 36.2 °F 35.6 °F 76% 29.44 in - SW 12.7 mph - N/A   Clear
4:00 AM 42.8 °F 35.1 °F 35.6 °F 76% 29.44 in - SSW 16.1 mph - N/A   Clear
4:30 AM 41.0 °F 34.3 °F 35.6 °F 81% 29.44 in - SSW 11.5 mph - N/A   Clear
5:00 AM 41.0 °F 33.9 °F 35.6 °F 81% 29.44 in - SSW 12.7 mph - N/A   Clear
5:30 AM 41.0 °F 33.5 °F 35.6 °F 81% 29.47 in - SSW 13.8 mph - N/A   Clear
6:00 AM 42.8 °F 35.4 °F 35.6 °F 76% 29.47 in - SSW 15.0 mph - N/A   Clear
6:30 AM 41.0 °F 33.1 °F 35.6 °F 81% 29.47 in - SSW 15.0 mph - N/A   Clear
7:00 AM 41.0 °F 33.9 °F 35.6 °F 81% 29.47 in - South 12.7 mph - N/A   Clear
7:30 AM 41.0 °F 34.3 °F 35.6 °F 81% 29.47 in 6.2 mi South 11.5 mph - N/A   Partly Cloudy
8:00 AM 41.0 °F 34.3 °F 37.4 °F 87% 29.47 in 6.2 mi South 11.5 mph - N/A   Scattered Clouds
8:30 AM 42.8 °F 36.6 °F 39.2 °F 87% 29.50 in 6.2 mi South 11.5 mph - N/A   Scattered Clouds
9:00 AM 42.8 °F 36.2 °F 39.2 °F 87% 29.50 in 6.2 mi South 12.7 mph - N/A   Mostly Cloudy
9:30 AM 42.8 °F 37.0 °F 39.2 °F 87% 29.47 in 6.2 mi South 10.4 mph - N/A   Mostly Cloudy
10:00 AM 44.6 °F 38.4 °F 39.2 °F 81% 29.47 in 6.2 mi South 12.7 mph - N/A   Mostly Cloudy
10:30 AM 44.6 °F 38.1 °F 41.0 °F 87% 29.47 in 6.2 mi South 13.8 mph - N/A   Mostly Cloudy
11:00 AM 46.4 °F 40.4 °F 41.0 °F 81% 29.47 in 6.2 mi South 13.8 mph - N/A Rain Light Rain
11:30 AM 46.4 °F 40.1 °F 41.0 °F 81% 29.47 in 6.2 mi South 15.0 mph 28.8 mph N/A Rain Light Rain
12:00 PM 46.4 °F 40.7 °F 42.8 °F 87% 29.47 in 6.2 mi South 12.7 mph - N/A Rain Light Rain
12:30 PM 46.4 °F 40.7 °F 42.8 °F 87% 29.44 in 5.6 mi South 12.7 mph 25.3 mph N/A Rain Light Rain
1:00 PM 46.4 °F 40.7 °F 44.6 °F 93% 29.42 in 5.6 mi South 12.7 mph - N/A Rain Light Rain
1:30 PM 46.4 °F 40.4 °F 44.6 °F 93% 29.42 in 5.6 mi South 13.8 mph - N/A Rain Light Rain
2:00 PM 46.4 °F 40.4 °F 44.6 °F 93% 29.42 in 6.2 mi South 13.8 mph - N/A Rain Light Rain
2:30 PM 48.2 °F - 44.6 °F 87% 29.42 in 6.2 mi SSW 13.8 mph - N/A   Mostly Cloudy
3:00 PM 48.2 °F - 44.6 °F 87% 29.42 in 6.2 mi SSW 10.4 mph - N/A Rain Light Rain
3:30 PM 48.2 °F - 44.6 °F 87% 29.42 in 2.5 mi WSW 12.7 mph 27.6 mph N/A Rain Light Rain
4:00 PM 46.4 °F 40.1 °F 44.6 °F 93% 29.42 in 5.0 mi West 15.0 mph - N/A Rain Light Rain
4:30 PM 46.4 °F 41.5 °F 42.8 °F 87% 29.44 in 6.2 mi WSW 10.4 mph - N/A Rain Light Rain
5:00 PM 46.4 °F 41.5 °F 42.8 °F 87% 29.44 in - WSW 10.4 mph - N/A   Clear
5:30 PM 46.4 °F 41.5 °F 41.0 °F 81% 29.47 in - WSW 10.4 mph - N/A   Clear
6:00 PM 46.4 °F 41.1 °F 41.0 °F 81% 29.47 in - WSW 11.5 mph - N/A   Clear
6:30 PM 44.6 °F 38.4 °F 41.0 °F 87% 29.50 in - SW 12.7 mph - N/A   Clear
7:00 PM 44.6 °F 38.4 °F 41.0 °F 87% 29.53 in - SW 12.7 mph - N/A   Clear
7:30 PM 44.6 °F 38.8 °F 41.0 °F 87% 29.53 in - SW 11.5 mph - N/A   Clear
8:00 PM 44.6 °F 40.2 °F 41.0 °F 87% 29.53 in - SW 8.1 mph - N/A   Clear
8:30 PM 44.6 °F 39.7 °F 41.0 °F 87% 29.56 in - SSW 9.2 mph - N/A   Clear
9:00 PM 44.6 °F 38.8 °F 41.0 °F 87% 29.56 in - SSW 11.5 mph - N/A   Clear
9:30 PM 46.4 °F 41.5 °F 41.0 °F 81% 29.56 in - SSW 10.4 mph - N/A   Clear
10:00 PM 44.6 °F 39.2 °F 41.0 °F 87% 29.56 in - SSW 10.4 mph - N/A   Clear
10:30 PM 44.6 °F 40.7 °F 39.2 °F 81% 29.59 in - SSW 6.9 mph - N/A   Clear
11:00 PM 44.6 °F 40.2 °F 39.2 °F 81% 29.59 in - SSW 8.1 mph - N/A   Clear
11:30 PM 44.6 °F 41.4 °F 41.0 °F 87% 29.59 in - South 5.8 mph - N/A   Clear